星链-33982 (STARLINK-33982)

导读

STARLINK-33982是美国于2025年4月28日发射的星链卫星,属于SpaceX打造的星链星座网络一员。星链计划旨在构建全球卫星互联网,为全球偏远地区等提供低延迟宽带服务,该卫星入轨后将助力扩展星链的服务覆盖范围,提升星座整体通信能力。

基本信息
目录编号:
63707
目录名称:
STARLINK-33982
国际标识:
2025-087L
轨道中心:
EARTH
卫星名称:
星链-33982
卫星全名:
星链-33982 (STARLINK-33982)
卫星状态:
在轨 (已飞行503 天)
发射日期:
2025-04-28 UTC
国别 :
美国 (US)
星等 :
--
该卫星已列入 空间交会检测服务 Space Conjunction Data Service (SCDS) ,当前飞行风险评估等级: 高风险
轨道信息
数据来源 国际轨道数据
星历时间: 2026-09-13T00:18:30+0800
21小时前
查看轨道信息
半长轴: 6840.808km
偏心率: 0.000154
轨道倾角: 53.160°
近地点辐角 94.858°
升交点赤经 69.939°
平近点角 265.260°
近地点: 461.617km
远地点: 463.725km
周期: 93.847分钟
每日圈数: 15.344111
详细信息
固有亮度:
5
最大亮度:
2.5
卫星平台:
Starlink V1.0
覆盖范围:
全球
运营商:
太空探索技术公司
运营商所在国:
美国
制造商(研发单位):
太空探索技术公司
制造商所在国:
美国
使用方式:
暂无
卫星简介
Starlink 计划是 SpaceX 推出的全球卫星互联网项目,通过发射低轨道卫星,为全球尤其是偏远地区提供高速、低延迟的互联网服务。自 2019 年起,Starlink 已部署数千颗卫星,旨在缩小全球数字鸿沟,推动互联网普及。该项目还为军事、航空等行业提供通信支持,带来广泛经济效益。
2D轨道图
3D轨道图
轨道高度分析图
轨道倾角分析图
轨道综合分析图
查看轨道综合分析图
交会数据列表
事件ID 空间交会对象 最接近时刻(TCA) 交会距离 交会风险概率(CRP) 交会风险指数(CRI) 操作
CDM_260915-181506-370706-823821
2026-09-15T
18:15:49+0000
0.923 km
远距离
2.076654E-5 中风险 0.61
CDM_260915-194906-370706-823821
2026-09-15T
19:49:36+0000
1.399 km
极远距离
5.00698E-6 低风险 0.49
CDM_260915-212306-370706-823821
2026-09-15T
21:23:23+0000
1.868 km
极远距离
2.107628E-6 低风险 0.41
CDM_260914-120105-794206-370721
2026-09-14T
12:01:19+0000
2.359 km
极远距离
1.736885E-6 低风险 0.4
CDM_260915-225706-370706-823821
2026-09-15T
22:57:11+0000
2.323 km
极远距离
1.278084E-6 低风险 0.37
CDM_260915-040405-327506-370721
2026-09-15T
04:04:27+0000
2.951 km
极远距离
4.809185E-7 极低风险 0.29
与全量物体交会距离演化趋势
与全量物体交会风险概率演化趋势